カタログに戻る

ECHOSTAR 25

運用中通信GEO
NORAD 68126·PAYLOAD·🇺🇸 United States

打ち上げ Mar 10, 2026 から Cape Canaveral Space Force Station

Loading…

TLE

最新Source: Space-Track

元期: Sep 14, 2026, 13:16 UTC

1 68126U 26045A   26257.55339080  .00000000  00000-0  00000-0 0  9995
2 68126   0.0200 150.3311 0001482  20.1140 272.3084  1.00269125  1883

AllMySatでECHOSTAR 25をリアルタイム追跡

Download on the App Store